ONEWEB-0253, 48971

Orbit data source: Space-Track

ONEWEB-0253, 48971 is a payload satellite owned by One Web (NAA) (UK) in LEO that was launched on Thu, 01 Jul 2021 UTC via a SOYUZ-2-1B launch vehicle from the Vostochny Cosmodrome (VOSTO). Payload-class satellites include a variety of spacecraft equipped with specific instruments for various scientific and technological missions. These include communications satellites like Starlink; space stations such as the ISS; scientific satellites like the Hubble; Earth observation satellites from companies like Planet Labs, Umbra, and HawkEye 360; GPS; miniature CubeSats for education and research; and military/defense satellites.

Loading next visibility...
Identifier
48971, 2021-060E
Orbit
LEO
Country
Flag of UKUK
Related business
Manufacturer
One Web
Mission
Operational Commercial Communications
Bus & Motor
ARROW, Unknown motor
Mass
148 kg wet, ~140 kg dry
Launch date (UTC)
2021-07-01 (4 years ago)
Launch vehicle
SOYUZ-2-1B
Launch site
Vostochny Cosmodrome (VOSTO)
Object type
Payload
Rocket body
Debris
Shape & HBR
Trap Box + 2 Pan, 6.7 m
Radar Cross Section
3.464 m², Large (>1 m²)

Expand to show TLE details & history
Last TLE update: 20 hours ago

TLE from 20 hours ago
0 ONEWEB-0253
1 48971U 21060E   25348.78003864  .00000023  00000-0  26463-4 0  9996
2 48971  87.9048 265.4955 0001856  70.0874 290.0457 13.16597730215321
Epoch: 2025-12-14T18:43Z
TLE epoch observation values (Epoch: 2025-12-14T18:43:15.338Z)
Latitude
Longitude
-99.00646°
Altitude
1,200.158 km
Speed
7.254 km/s
True Right ascension
17h 41m 58s
True Declination
0° 00' 00"
Sunlit
Object was in daylight at epoch
Visualization orbit readout
Latitude
Unknown
Longitude
Unknown
Altitude
Unknown
Speed
Unknown
Apparent Right ascension
Unknown
Apparent Declination
Unknown
Sunlit
N/A
Visualization observer readout
Local Sidereal Time
13:19:01
Azimuth
Unknown
Elevation
Unknown
Doppler factor
Unknown
Orbital elements
Apogee altitude
1,196.259 km
Perigee altitude
1,193.448 km
Semi-major axis
7,572.991 km
Eccentricity
0.00019
Inclination
87.9048°
RAAN
265.4955°
Arg. of periapsis
70.0874°
True anomaly
290.02572°
Mean anomaly
290.0457°
Eccentric anomaly
290.03571°
Mean motion
3.29338 °/min
Orbital period
109.31 mins
BSTAR
0.000026463
Loading maneuver chart data...
Computing Atmospheric mass density...
Loading historical data...
Loading historical data...
Loading historical data...
Loading historical data...
Loading historical data...
Loading historical data...
Loading historical data...

Documentation

Showing up to 5 results
|